Regional Weather Roundup
Issued by NWS

Home | Current Version | Previous Version | Graphics & Text | Print | Product List | Glossary On
Versions: 1 2 3 4 5 6 7 8 9 10 11 12 13 14 15 16 17 18 19 20 21 22 23 24 25 26 27 28 29 30 31 32 33 34 35 36 37 38 39 40 41 42 43 44 45 46 47 48 49 50
000
ASUS43 KLOT 281210
RWRIL

ILLINOIS REGIONAL WEATHER ROUNDUP
NATIONAL WEATHER SERVICE CHICAGO/ROMEOVILLE IL
700 AM CDT THU AUG 28 2014

NOTE: "FAIR" INDICATES FEW OR NO CLOUDS BELOW 12,000 FEET WITH NO
SIGNIFICANT WEATHER AND/OR OBSTRUCTIONS TO VISIBILITY.

* THESE STATIONS ARE NOT UNDER NWS QUALITY CONTROL. THEY ALSO MAY NOT
  REPORT WEATHER SUCH AS PRECIPITATION OR FOG.

ILZ001-002-007-009-015-016-024-281300-
NORTHWEST ILLINOIS

CITY           SKY/WX    TMP DP  RH WIND       PRES   REMARKS
MOLINE         MOCLDY    66  61  84 E8        30.09R
6HR MIN TEMP:  64; 6HR MAX TEMP:  68;

STERLING*      PTCLDY    63  61  94 E6        30.12S
SAVANNA*       PTCLDY    65  61  89 E7        30.11S
$$

ILZ003-004-008-010-011-017-018-281300-
NORTH CENTRAL ILLINOIS

CITY           SKY/WX    TMP DP  RH WIND       PRES   REMARKS
ROCKFORD       PTCLDY    64  59  83 SE6       30.16R
6HR MIN TEMP:  63; 6HR MAX TEMP:  65;

FREEPORT*      PTCLDY    60  59  97 CALM      30.16R FOG
ROCHELLE*      PTCLDY    62  59  91 CALM      30.14R
DE KALB*       PTCLDY    60  58  93 E5        30.15S
PERU*          PTCLDY    64  62  93 E8        30.12S
$$

ILZ005-006-012>014-019>023-281300-
NORTHEAST ILLINOIS

CITY           SKY/WX    TMP DP  RH WIND       PRES   REMARKS
CHICAGO-OHARE  MOCLDY    67  55  65 E9        30.14R
6HR MIN TEMP:  67; 6HR MAX TEMP:  68;

CHICAGO-MIDWAY MOCLDY    69  58  67 E9        30.14R
6HR MIN TEMP:  69; 6HR MAX TEMP:  71;

AURORA         PTCLDY    61  58  90 CALM      30.14R
6HR MIN TEMP:  60; 6HR MAX TEMP:  63;

LANSING*       CLEAR     62  56  82 NE5       30.14S
JOLIET*        CLEAR     63  59  88 CALM      30.14S
WAUKEGAN       CLEAR     64  56  75 E6        30.14S
6HR MIN TEMP:  58; 6HR MAX TEMP:  64;

DUPAGE AIRPORT CLOUDY    66  59  78 CALM      30.14R
6HR MIN TEMP:  63; 6HR MAX TEMP:  66;

KANKAKEE*      CLEAR     61  58  91 E3        30.14R
WHEELING       CLOUDY    67  57  70 E6        30.16R
6HR MIN TEMP:  65; 6HR MAX TEMP:  68;

MORRIS*        PTCLDY    63  63  98 E5        30.13R
ROMEOVILLE*    CLEAR     63  60  88 E5        30.14R
NORTHERLY ISL    N/A     67  56  67 E14         N/A
$$

LMZ740>746-281300-
SOUTHERN LAKE MICHIGAN

STATION/POSITION SKY/WX   TEMP    WIND        PRES    VSBY  WAVE
                          AIR SEA DIR/SP/G                  HT/PER
                          (F)     (DEG/KT/KT) (MB)    (MI)  (FT/S)
SOUTHERN BUOY              65 69  100/ 14/ 16 1021.0R         2/ 3
WAUKEGAN HARBOR            67     110/ 15/ 17   N/A
HARRISON CRIB              67      90/ 16/ 19   N/A
BURNHAM HARBOR             67      80/ 10/ 16   N/A
CALUMET HARBOR             67      70/ 10/ 14 1019.3R
MICHIGAN CITY              60      50/  8/ 10   N/A
MICHIGAN CITY 6N           64 73   90/ 12/ 16   N/A           3/ 4
ST. JOSEPH                 62 72   90/ 14/ 16   N/A           2/ 4
$$

ILZ025>027-034>036-040-047-049-050-058-095>099-281300-
WEST-CENTRAL ILLINOIS

CITY           SKY/WX    TMP DP  RH WIND       PRES   REMARKS
QUINCY         FOG       72  71  97 E6        30.05R VSB 1/4
GALESBURG*     CLOUDY    66  61  84 E7        30.09S
MACOMB*        CLOUDY    67  64  92 E3        30.10R
JACKSONVILLE*  CLEAR     70  69  96 E5        30.08S FOG
PITTSFIELD*    FOG       72  70  94 E7        30.07R VSB<1/4
$$

ILZ028>032-037-038-041>044-048-051>054-059>061-281300-
CENTRAL ILLINOIS

CITY           SKY/WX    TMP DP  RH WIND       PRES   REMARKS
PONTIAC        PTCLDY    64  61  88 E7        30.11F
DECATUR        MOCLDY    67  64  90 E7        30.09S
PEORIA         CLOUDY    68  60  75 E7        30.10R
6HR MIN TEMP:  68; 6HR MAX TEMP:  73;

LACON*         PTCLDY    64  58  80 E8        30.10S
LINCOLN*       MOCLDY    67  64  88 E5        30.06S
SPRINGFIELD    CLOUDY    70  65  84 E7        30.08R
6HR MIN TEMP:  69; 6HR MAX TEMP:  75;

TAYLORVILLE    CLOUDY    68  64  88 E6        30.08R
$$

ILZ033-039-045-046-055>057-062-063-281300-
EAST-CENTRAL ILLINOIS

CITY           SKY/WX    TMP DP  RH WIND       PRES   REMARKS
CHAMPAIGN      LGT RAIN  65  63  93 E7        30.10F
DANVILLE*      CLOUDY    64  62  94 NE6       30.08F
RANTOUL*       PTCLDY    65  62  87 E7        30.11F
MATTOON        MOCLDY    67  64  90 NE5       30.09R
PARIS*         MOCLDY    65  64  97 CALM      30.10F
$$

ILZ079-100>102-281300-
SOUTHWEST ILLINOIS

CITY           SKY/WX    TMP DP  RH WIND       PRES   REMARKS
ALTON          PTCLDY    68  66  94 VRB3      30.06  FOG
CAHOKIA*       CLEAR     70  70 100 CALM      30.05R
SPARTA*        CLEAR     71  70  98 CALM      30.06S
$$

ILZ064>066-069>071-074>076-080>082-084>086-088>090-092>094-281300-
SOUTH-CENTRAL ILLINOIS

CITY           SKY/WX    TMP DP  RH WIND       PRES   REMARKS
CARBONDALE     PTCLDY    73  70  90 CALM      30.04S
6HR MIN TEMP:  72; 6HR MAX TEMP:  74;

CAIRO*         FOG       73  70  91 CALM      30.04R VSB 1/2
EFFINGHAM*     RAIN      69  65  88 CALM      30.08R
MARION         MOCLDY    75  72  88 N5        30.05R
MT. VERNON     MOCLDY    72  68  88 CALM      30.06R
SALEM*         PTCLDY    74  72  96 E3        30.06R FOG
METROPOLIS*    PTCLDY    72  72 100 CALM      30.03S FOG
$$

ILZ067-068-072-073-078-083-087-091-281300-
SOUTHEAST ILLINOIS

CITY           SKY/WX    TMP DP  RH WIND       PRES   REMARKS
LAWRENCEVILLE  MOCLDY    71  69  93 NE8       30.06S
FLORA*         MOCLDY    71  70  96 NE3       30.07R
FAIRFIELD*     MOCLDY    73  72  94 NE3       30.05S FOG
HARRISBURG*    MOCLDY    72  72 100 CALM      30.05S
ROBINSON*      PTCLDY    71  70  96 NE3       30.08S
CARMI*           N/A     73  73  98 CALM      30.05R FOG
$$

ABBREVIATIONS USED IN REMARKS
   TC - TEMPERATURE IN CELSIUS
  WCI - WIND CHILL INDEX
   HX - HEAT INDEX
  VSB - VISIBILITY
$$



USA.gov is the U.S. government's official web portal to all federal, state and local government web resources and services.